QPF
0.00 0.00 0.00 0.00 0.00 0.00 0.00 0.00 0.00 0.00 0.00 0.00 0.00 0.00 0.00 0.00 0.00 0.00 0.00 0.00 0.00 0.00 0.00 0.00 0.00 0.01 0.01 0.02 0.04 0.06 0.08 0.10 0.12 0.14 0.12 0.10 0.08 0.06 0.06 0.05 0.04 0.03 0.02
0.00 0.00 0.00 0.00 0.00 0.00 0.00 0.00 0.00 0.00 0.00 0.00 0.00 0.00 0.00 0.00 0.00 0.00 0.00 0.00 0.00 0.00 0.00 0.00 0.00 0.01 0.01 0.02 0.03 0.05 0.08 0.10 0.11 0.14 0.15 0.14 0.13 0.10 0.09 0.08 0.06 0.04 0.03
0.00 0.00 0.00 0.00 0.00 0.00 0.00 0.00 0.00 0.00 0.00 0.00 0.00 0.00 0.00 0.00 0.00 0.00 0.00 0.00 0.00 0.00 0.00 0.00 0.01 0.01 0.01 0.01 0.02 0.04 0.06 0.09 0.11 0.13 0.16 0.17 0.18 0.16 0.14 0.10 0.08 0.06 0.04
0.00 0.00 0.00 0.00 0.00 0.00 0.00 0.00 0.00 0.00 0.00 0.00 0.00 0.00 0.00 0.00 0.00 0.00 0.00 0.00 0.00 0.00 0.00 0.01 0.01 0.01 0.01 0.01 0.02 0.03 0.05 0.08 0.10 0.13 0.14 0.16 0.18 0.18 0.18 0.15 0.10 0.07 0.06
0.00 0.00 0.00 0.00 0.00 0.00 0.00 0.00 0.00 0.00 0.00 0.00 0.00 0.00 0.00 0.00 0.00 0.00 0.00 0.00 0.00 0.00 0.00 0.00 0.01 0.01 0.01 0.01 0.02 0.02 0.04 0.07 0.10 0.12 0.13 0.15 0.18 0.19 0.18 0.16 0.14 0.11 0.07
0.00 0.00 0.00 0.00 0.00 0.00 0.00 0.00 0.00 0.00 0.00 0.00 0.00 0.00 0.00 0.00 0.00 0.00 0.00 0.00 0.00 0.00 0.00 0.00 0.01 0.02 0.02 0.01 0.01 0.01 0.02 0.04 0.08 0.10 0.11 0.13 0.16 0.18 0.17 0.17 0.15 0.13 0.09
0.00 0.00 0.00 0.00 0.00 0.00 0.00 0.00 0.00 0.00 0.00 0.00 0.00 0.00 0.00 0.00 0.00 0.00 0.00 0.00 0.00 0.00 0.00 0.00 0.00 0.01 0.02 0.03 0.02 0.02 0.01 0.03 0.04 0.08 0.10 0.11 0.13 0.16 0.19 0.17 0.15 0.11 0.07
0.00 0.00 0.00 0.00 0.00 0.00 0.00 0.00 0.00 0.00 0.00 0.00 0.00 0.00 0.00 0.00 0.01 0.00 0.00 0.00 0.00 0.00 0.00 0.00 0.01 0.01 0.01 0.02 0.03 0.04 0.02 0.02 0.03 0.05 0.07 0.10 0.13 0.16 0.21 0.21 0.18 0.15 0.11
0.00 0.00 0.00 0.00 0.00 0.00 0.00 0.00 0.00 0.00 0.00 0.00 0.00 0.00 0.00 0.00 0.01 0.01 0.01 0.00 0.01 0.01 0.01 0.01 0.01 0.01 0.02 0.02 0.02 0.03 0.04 0.03 0.04 0.04 0.05 0.09 0.13 0.17 0.23 0.25 0.23 0.19 0.14
0.00 0.00 0.00 0.00 0.00 0.00 0.00 0.00 0.00 0.00 0.00 0.00 0.00 0.00 0.00 0.00 0.01 0.02 0.02 0.01 0.01 0.01 0.01 0.01 0.02 0.02 0.03 0.03 0.03 0.03 0.03 0.04 0.03 0.03 0.04 0.07 0.11 0.14 0.18 0.23 0.23 0.20 0.15
0.00 0.00 0.00 0.00 0.00 0.00 0.00 0.00 0.00 0.00 0.00 0.00 0.00 0.00 0.00 0.00 0.00 0.01 0.02 0.01 0.01 0.01 0.02 0.02 0.01 0.02 0.04 0.04 0.04 0.03 0.03 0.04 0.04 0.04 0.03 0.04 0.08 0.13 0.16 0.18 0.21 0.21 0.18
0.00 0.00 0.00 0.00 0.00 0.00 0.00 0.00 0.00 0.00 0.00 0.00 0.00 0.00 0.00 0.00 0.00 0.01 0.01 0.01 0.01 0.02 0.03 0.02 0.02 0.03 0.04 0.05 0.04 0.04 0.05 0.05 0.06 0.06 0.05 0.04 0.05 0.09 0.14 0.17 0.19 0.21 0.19
0.00 0.00 0.00 0.00 0.00 0.00 0.00 0.00 0.00 0.00 0.00 0.00 0.00 0.00 0.00 0.00 0.00 0.00 0.01 0.01 0.01 0.01 0.03 0.03 0.03 0.03 0.05 0.06 0.06 0.05 0.06 0.06 0.06 0.06 0.06 0.03 0.03 0.05 0.09 0.14 0.19 0.20 0.20
0.00 0.00 0.00 0.00 0.00 0.00 0.00 0.00 0.00 0.00 0.00 0.00 0.00 0.00 0.01 0.01 0.00 0.00 0.00 0.01 0.01 0.01 0.03 0.04 0.05 0.05 0.06 0.07 0.07 0.07 0.05 0.06 0.06 0.06 0.05 0.04 0.03 0.04 0.07 0.10 0.13 0.18 0.20
0.00 0.00 0.00 0.00 0.00 0.00 0.00 0.00 0.00 0.00 0.00 0.00 0.00 0.01 0.01 0.01 0.01 0.00 0.00 0.01 0.01 0.01 0.02 0.04 0.04 0.06 0.07 0.08 0.07 0.08 0.06 0.05 0.05 0.05 0.06 0.04 0.03 0.04 0.05 0.07 0.10 0.12 0.17
0.00 0.00 0.00 0.00 0.00 0.00 0.00 0.00 0.00 0.00 0.00 0.00 0.01 0.01 0.01 0.01 0.00 0.01 0.01 0.01 0.02 0.02 0.03 0.04 0.05 0.07 0.08 0.08 0.06 0.06 0.06 0.04 0.03 0.03 0.05 0.04 0.03 0.03 0.04 0.05 0.07 0.09 0.10
0.00 0.00 0.00 0.00 0.00 0.00 0.00 0.00 0.00 0.00 0.00 0.01 0.00 0.00 0.00 0.00 0.00 0.01 0.02 0.02 0.02 0.02 0.03 0.04 0.05 0.07 0.09 0.07 0.05 0.04 0.04 0.03 0.03 0.02 0.03 0.03 0.03 0.02 0.03 0.04 0.05 0.06 0.08
0.00 0.00 0.00 0.00 0.00 0.00 0.00 0.00 0.00 0.00 0.00 0.00 0.00 0.00 0.00 0.00 0.00 0.01 0.02 0.02 0.01 0.02 0.02 0.03 0.04 0.05 0.06 0.05 0.04 0.03 0.03 0.03 0.03 0.02 0.02 0.02 0.02 0.02 0.03 0.03 0.04 0.04 0.05
0.00 0.00 0.00 0.00 0.00 0.00 0.00 0.00 0.00 0.00 0.00 0.00 0.00 0.00 0.01 0.01 0.01 0.01 0.01 0.02 0.01 0.02 0.02 0.02 0.03 0.04 0.04 0.03 0.02 0.02 0.02 0.02 0.02 0.02 0.01 0.02 0.02 0.02 0.03 0.03 0.03 0.04 0.04
0.00 0.00 0.00 0.00 0.00 0.00 0.00 0.00 0.00 0.00 0.00 0.00 0.00 0.01 0.01 0.01 0.01 0.01 0.01 0.01 0.01 0.01 0.02 0.02 0.02 0.03 0.02 0.02 0.01 0.01 0.01 0.02 0.02 0.01 0.01 0.01 0.01 0.02 0.02 0.02 0.02 0.04 0.03
0.00 0.00 0.00 0.00 0.00 0.00 0.00 0.00 0.00 0.00 0.00 0.00 0.00 0.01 0.01 0.01 0.01 0.01 0.00 0.01 0.01 0.02 0.02 0.02 0.02 0.02 0.01 0.01 0.01 0.01 0.01 0.01 0.01 0.01 0.01 0.01 0.01 0.01 0.02 0.02 0.02 0.03 0.04
0.00 0.00 0.00 0.00 0.00 0.00 0.00 0.00 0.00 0.00 0.00 0.00 0.00 0.01 0.01 0.01 0.01 0.01 0.01 0.01 0.01 0.02 0.02 0.02 0.02 0.02 0.01 0.02 0.02 0.02 0.02 0.02 0.03 0.02 0.01 0.01 0.01 0.01 0.01 0.01 0.02 0.03 0.04
0.00 0.00 0.00 0.00 0.00 0.00 0.00 0.00 0.00 0.00 0.00 0.00 0.01 0.01 0.01 0.01 0.01 0.01 0.01 0.01 0.02 0.02 0.02 0.02 0.02 0.02 0.03 0.03 0.03 0.04 0.03 0.02 0.02 0.02 0.02 0.02 0.01 0.01 0.01 0.01 0.02 0.03 0.04
0.00 0.00 0.00 0.00 0.00 0.00 0.00 0.00 0.00 0.00 0.00 0.00 0.01 0.01 0.01 0.01 0.01 0.02 0.02 0.02 0.02 0.02 0.02 0.03 0.03 0.03 0.04 0.04 0.04 0.04 0.03 0.02 0.02 0.02 0.02 0.02 0.02 0.02 0.02 0.02 0.02 0.03 0.03
0.00 0.00 0.00 0.00 0.00 0.00 0.00 0.00 0.00 0.00 0.00 0.00 0.01 0.01 0.01 0.01 0.01 0.01 0.02 0.02 0.02 0.02 0.02 0.03 0.04 0.05 0.05 0.05 0.04 0.04 0.03 0.02 0.02 0.02 0.02 0.01 0.02 0.02 0.03 0.03 0.04 0.04 0.04
0.00 0.00 0.00 0.00 0.00 0.00 0.00 0.00 0.00 0.00 0.00 0.00 0.01 0.01 0.02 0.01 0.01 0.01 0.01 0.01 0.01 0.02 0.03 0.03 0.06 0.07 0.08 0.06 0.04 0.03 0.03 0.03 0.03 0.03 0.03 0.03 0.03 0.03 0.04 0.04 0.04 0.05 0.05
MSLP
1013.75 1013.71 1013.70 1013.70 1013.68 1013.63 1013.54 1013.44 1013.33 1013.22 1013.11 1013.01 1012.89 1012.75 1012.57 1012.36 1012.12 1011.87 1011.64 1011.45 1011.33 1011.28 1011.29 1011.33 1011.37 1011.38 1011.31 1011.15 1010.88 1010.53 1010.12 1009.69 1009.27 1008.92 1008.65 1008.50 1008.45 1008.52 1008.69 1008.95 1009.29 1009.70 1010.17
1013.81 1013.73 1013.67 1013.63 1013.57 1013.49 1013.39 1013.27 1013.15 1013.01 1012.88 1012.74 1012.58 1012.39 1012.17 1011.91 1011.64 1011.35 1011.10 1010.89 1010.74 1010.67 1010.67 1010.72 1010.78 1010.82 1010.80 1010.71 1010.54 1010.30 1009.99 1009.66 1009.33 1009.04 1008.82 1008.68 1008.63 1008.67 1008.81 1009.04 1009.35 1009.73 1010.18
1013.85 1013.73 1013.64 1013.56 1013.47 1013.36 1013.22 1013.07 1012.91 1012.75 1012.58 1012.40 1012.20 1011.98 1011.72 1011.44 1011.13 1010.83 1010.55 1010.32 1010.16 1010.07 1010.06 1010.10 1010.17 1010.24 1010.28 1010.26 1010.18 1010.03 1009.83 1009.60 1009.36 1009.15 1008.97 1008.85 1008.81 1008.85 1008.97 1009.18 1009.47 1009.84 1010.29
1013.82 1013.69 1013.58 1013.46 1013.33 1013.18 1013.00 1012.81 1012.61 1012.41 1012.20 1011.99 1011.76 1011.51 1011.23 1010.93 1010.62 1010.30 1010.02 1009.77 1009.60 1009.50 1009.47 1009.50 1009.57 1009.66 1009.74 1009.79 1009.78 1009.73 1009.63 1009.50 1009.35 1009.20 1009.07 1008.99 1008.95 1008.99 1009.10 1009.30 1009.59 1009.96 1010.42
1013.73 1013.60 1013.46 1013.31 1013.14 1012.94 1012.71 1012.48 1012.23 1011.98 1011.74 1011.50 1011.25 1010.99 1010.71 1010.41 1010.11 1009.80 1009.51 1009.27 1009.08 1008.96 1008.91 1008.93 1009.00 1009.10 1009.20 1009.29 1009.36 1009.39 1009.37 1009.33 1009.25 1009.17 1009.09 1009.03 1009.01 1009.05 1009.16 1009.36 1009.65 1010.04 1010.52
1013.58 1013.45 1013.29 1013.11 1012.89 1012.63 1012.35 1012.06 1011.77 1011.48 1011.21 1010.95 1010.70 1010.44 1010.17 1009.89 1009.60 1009.31 1009.04 1008.79 1008.59 1008.45 1008.38 1008.38 1008.43 1008.52 1008.64 1008.77 1008.89 1008.98 1009.04 1009.07 1009.06 1009.04 1009.00 1008.97 1008.96 1009.01 1009.13 1009.33 1009.63 1010.04 1010.56
1013.39 1013.26 1013.08 1012.86 1012.59 1012.28 1011.94 1011.59 1011.25 1010.92 1010.63 1010.36 1010.11 1009.87 1009.62 1009.37 1009.11 1008.84 1008.57 1008.32 1008.11 1007.95 1007.85 1007.81 1007.84 1007.92 1008.04 1008.19 1008.35 1008.50 1008.62 1008.72 1008.78 1008.80 1008.81 1008.81 1008.82 1008.88 1009.00 1009.21 1009.53 1009.96 1010.51
1013.20 1013.06 1012.85 1012.59 1012.26 1011.89 1011.49 1011.09 1010.70 1010.34 1010.03 1009.75 1009.51 1009.28 1009.06 1008.84 1008.60 1008.35 1008.09 1007.84 1007.61 1007.42 1007.28 1007.21 1007.20 1007.27 1007.38 1007.55 1007.74 1007.94 1008.12 1008.28 1008.41 1008.50 1008.55 1008.59 1008.62 1008.69 1008.82 1009.04 1009.36 1009.80 1010.36
1013.01 1012.85 1012.62 1012.31 1011.92 1011.49 1011.04 1010.58 1010.15 1009.77 1009.43 1009.15 1008.91 1008.70 1008.50 1008.29 1008.07 1007.83 1007.58 1007.31 1007.06 1006.84 1006.67 1006.55 1006.52 1006.56 1006.68 1006.85 1007.08 1007.33 1007.57 1007.80 1008.00 1008.15 1008.26 1008.34 1008.40 1008.49 1008.62 1008.83 1009.15 1009.59 1010.15
1012.82 1012.64 1012.37 1012.02 1011.58 1011.10 1010.59 1010.09 1009.63 1009.21 1008.86 1008.56 1008.32 1008.12 1007.93 1007.73 1007.52 1007.28 1007.02 1006.74 1006.47 1006.22 1006.01 1005.87 1005.80 1005.83 1005.94 1006.14 1006.40 1006.69 1007.01 1007.31 1007.58 1007.80 1007.97 1008.09 1008.19 1008.29 1008.43 1008.63 1008.93 1009.34 1009.88
1012.60 1012.40 1012.10 1011.70 1011.23 1010.70 1010.16 1009.62 1009.12 1008.68 1008.31 1008.00 1007.75 1007.54 1007.35 1007.16 1006.95 1006.71 1006.44 1006.15 1005.86 1005.58 1005.34 1005.18 1005.09 1005.11 1005.22 1005.44 1005.73 1006.08 1006.46 1006.83 1007.17 1007.47 1007.70 1007.87 1008.00 1008.12 1008.25 1008.43 1008.69 1009.06 1009.56
1012.33 1012.10 1011.77 1011.34 1010.84 1010.28 1009.71 1009.15 1008.63 1008.17 1007.78 1007.46 1007.20 1006.99 1006.79 1006.59 1006.38 1006.14 1005.86 1005.57 1005.26 1004.97 1004.73 1004.54 1004.45 1004.46 1004.58 1004.81 1005.14 1005.53 1005.96 1006.39 1006.80 1007.15 1007.44 1007.65 1007.82 1007.94 1008.06 1008.22 1008.44 1008.76 1009.19
1011.98 1011.72 1011.36 1010.91 1010.39 1009.82 1009.24 1008.67 1008.14 1007.68 1007.28 1006.95 1006.68 1006.45 1006.25 1006.05 1005.84 1005.60 1005.33 1005.04 1004.74 1004.45 1004.20 1004.02 1003.92 1003.93 1004.06 1004.30 1004.64 1005.05 1005.52 1005.99 1006.44 1006.84 1007.17 1007.42 1007.60 1007.74 1007.85 1007.98 1008.16 1008.41 1008.78
1011.54 1011.26 1010.88 1010.42 1009.89 1009.32 1008.74 1008.18 1007.66 1007.19 1006.79 1006.45 1006.18 1005.96 1005.76 1005.56 1005.36 1005.14 1004.89 1004.61 1004.33 1004.06 1003.82 1003.64 1003.55 1003.56 1003.67 1003.91 1004.25 1004.67 1005.13 1005.62 1006.09 1006.51 1006.86 1007.13 1007.33 1007.47 1007.58 1007.68 1007.83 1008.04 1008.34
1011.04 1010.73 1010.34 1009.88 1009.35 1008.80 1008.23 1007.69 1007.17 1006.72 1006.32 1005.99 1005.73 1005.51 1005.31 1005.14 1004.95 1004.76 1004.54 1004.30 1004.05 1003.80 1003.59 1003.43 1003.33 1003.34 1003.44 1003.66 1003.97 1004.36 1004.80 1005.27 1005.72 1006.14 1006.49 1006.77 1006.98 1007.12 1007.23 1007.33 1007.45 1007.63 1007.89
1010.52 1010.20 1009.80 1009.33 1008.82 1008.28 1007.74 1007.21 1006.72 1006.28 1005.89 1005.57 1005.32 1005.11 1004.93 1004.78 1004.62 1004.46 1004.28 1004.09 1003.88 1003.68 1003.49 1003.35 1003.26 1003.25 1003.33 1003.51 1003.77 1004.11 1004.50 1004.92 1005.34 1005.73 1006.06 1006.34 1006.55 1006.70 1006.82 1006.93 1007.05 1007.22 1007.47
1010.04 1009.70 1009.29 1008.84 1008.34 1007.82 1007.29 1006.78 1006.31 1005.88 1005.51 1005.20 1004.95 1004.75 1004.59 1004.46 1004.34 1004.22 1004.09 1003.95 1003.79 1003.63 1003.48 1003.35 1003.27 1003.25 1003.30 1003.42 1003.63 1003.90 1004.23 1004.58 1004.94 1005.29 1005.60 1005.86 1006.08 1006.25 1006.39 1006.52 1006.66 1006.85 1007.10
1009.62 1009.28 1008.88 1008.43 1007.94 1007.43 1006.92 1006.42 1005.96 1005.53 1005.17 1004.86 1004.62 1004.42 1004.28 1004.17 1004.08 1004.00 1003.91 1003.81 1003.70 1003.59 1003.47 1003.37 1003.30 1003.26 1003.28 1003.37 1003.51 1003.72 1003.97 1004.26 1004.56 1004.86 1005.14 1005.39 1005.61 1005.80 1005.97 1006.13 1006.32 1006.54 1006.82
1009.28 1008.94 1008.55 1008.11 1007.64 1007.14 1006.63 1006.14 1005.67 1005.25 1004.87 1004.56 1004.30 1004.11 1003.97 1003.87 1003.80 1003.74 1003.69 1003.64 1003.57 1003.49 1003.41 1003.34 1003.28 1003.24 1003.24 1003.29 1003.39 1003.54 1003.74 1003.97 1004.22 1004.47 1004.73 1004.97 1005.20 1005.41 1005.61 1005.82 1006.04 1006.30 1006.61
1009.00 1008.68 1008.31 1007.88 1007.41 1006.92 1006.41 1005.91 1005.44 1005.00 1004.60 1004.27 1004.00 1003.79 1003.64 1003.54 1003.47 1003.43 1003.40 1003.37 1003.34 1003.30 1003.26 1003.21 1003.17 1003.14 1003.15 1003.18 1003.26 1003.37 1003.53 1003.72 1003.94 1004.17 1004.41 1004.64 1004.88 1005.11 1005.34 1005.58 1005.84 1006.13 1006.47
1008.73 1008.45 1008.10 1007.69 1007.23 1006.74 1006.23 1005.72 1005.23 1004.77 1004.35 1003.99 1003.69 1003.46 1003.29 1003.17 1003.10 1003.05 1003.03 1003.02 1003.01 1003.00 1002.99 1002.97 1002.96 1002.96 1002.98 1003.03 1003.10 1003.21 1003.36 1003.53 1003.73 1003.95 1004.18 1004.42 1004.66 1004.91 1005.16 1005.42 1005.70 1006.01 1006.35
1008.43 1008.19 1007.87 1007.48 1007.04 1006.55 1006.04 1005.52 1005.01 1004.53 1004.09 1003.71 1003.39 1003.13 1002.93 1002.79 1002.69 1002.64 1002.61 1002.60 1002.60 1002.62 1002.63 1002.65 1002.67 1002.71 1002.76 1002.84 1002.94 1003.07 1003.22 1003.41 1003.61 1003.83 1004.06 1004.30 1004.54 1004.79 1005.04 1005.31 1005.59 1005.89 1006.22
1008.06 1007.86 1007.58 1007.22 1006.79 1006.32 1005.81 1005.30 1004.78 1004.29 1003.84 1003.44 1003.09 1002.81 1002.59 1002.42 1002.30 1002.23 1002.19 1002.17 1002.18 1002.20 1002.23 1002.28 1002.34 1002.41 1002.51 1002.63 1002.77 1002.94 1003.12 1003.33 1003.55 1003.78 1004.01 1004.25 1004.49 1004.73 1004.97 1005.22 1005.48 1005.75 1006.06
1007.62 1007.46 1007.22 1006.89 1006.50 1006.04 1005.55 1005.05 1004.54 1004.06 1003.61 1003.21 1002.86 1002.56 1002.32 1002.13 1001.99 1001.90 1001.84 1001.81 1001.80 1001.82 1001.87 1001.93 1002.02 1002.14 1002.27 1002.44 1002.62 1002.83 1003.05 1003.28 1003.52 1003.76 1004.00 1004.23 1004.46 1004.68 1004.90 1005.12 1005.34 1005.58 1005.85
1007.16 1007.05 1006.84 1006.54 1006.18 1005.75 1005.29 1004.81 1004.33 1003.87 1003.44 1003.05 1002.71 1002.42 1002.17 1001.98 1001.82 1001.70 1001.62 1001.57 1001.55 1001.56 1001.60 1001.68 1001.78 1001.92 1002.09 1002.29 1002.51 1002.75 1003.00 1003.26 1003.51 1003.76 1003.99 1004.21 1004.42 1004.62 1004.81 1004.99 1005.18 1005.38 1005.60
1006.76 1006.67 1006.49 1006.23 1005.89 1005.50 1005.08 1004.63 1004.19 1003.77 1003.37 1003.02 1002.70 1002.42 1002.19 1001.99 1001.82 1001.68 1001.58 1001.51 1001.46 1001.46 1001.48 1001.55 1001.66 1001.81 1001.99 1002.21 1002.45 1002.71 1002.97 1003.24 1003.49 1003.74 1003.96 1004.17 1004.35 1004.52 1004.68 1004.84 1005.00 1005.17 1005.35
Thickness
5655 5649 5644 5640 5635 5631 5626 5623 5620 5618 5615 5613 5611 5610 5608 5607 5607 5606 5605 5606 5606 5608 5609 5612 5615 5618 5621 5625 5630 5635 5640 5645 5650 5657 5664 5671 5676 5681 5686 5691 5695 5698 5701
5648 5643 5637 5632 5627 5623 5619 5616 5613 5610 5607 5605 5602 5600 5599 5598 5597 5596 5595 5596 5596 5598 5600 5602 5605 5608 5611 5615 5620 5625 5630 5636 5641 5647 5653 5660 5665 5671 5676 5680 5685 5688 5692
5642 5636 5631 5625 5621 5616 5613 5609 5606 5603 5600 5597 5594 5591 5589 5588 5586 5586 5585 5585 5586 5587 5589 5591 5595 5597 5601 5605 5609 5614 5620 5626 5632 5637 5643 5649 5655 5660 5664 5669 5673 5677 5681
5636 5630 5624 5619 5615 5610 5607 5603 5599 5596 5592 5589 5586 5583 5580 5578 5576 5575 5575 5575 5576 5577 5578 5581 5584 5587 5591 5595 5600 5605 5610 5615 5621 5627 5632 5639 5645 5650 5655 5659 5662 5666 5670
5630 5624 5619 5614 5610 5605 5601 5597 5593 5589 5586 5582 5578 5574 5571 5569 5568 5567 5565 5565 5565 5566 5568 5570 5573 5577 5581 5585 5590 5595 5600 5605 5610 5616 5623 5628 5634 5641 5646 5651 5654 5656 5659
5625 5620 5615 5609 5605 5600 5596 5591 5587 5583 5579 5574 5570 5567 5563 5562 5561 5558 5556 5555 5555 5555 5557 5559 5561 5565 5571 5575 5580 5586 5590 5595 5601 5606 5613 5619 5626 5632 5638 5642 5645 5648 5650
5620 5615 5610 5605 5599 5595 5590 5585 5581 5576 5572 5567 5563 5560 5557 5555 5552 5549 5547 5545 5545 5544 5545 5547 5551 5556 5559 5563 5569 5574 5580 5586 5592 5598 5604 5611 5618 5625 5630 5634 5638 5642 5645
5616 5610 5605 5600 5594 5589 5584 5579 5575 5570 5565 5561 5558 5554 5551 5549 5545 5542 5539 5537 5536 5535 5535 5536 5538 5542 5546 5550 5555 5562 5568 5575 5582 5589 5596 5603 5609 5615 5621 5627 5631 5632 5633
5612 5606 5601 5595 5589 5584 5579 5574 5569 5564 5560 5555 5552 5548 5545 5542 5538 5534 5531 5528 5527 5526 5526 5527 5528 5531 5534 5537 5543 5549 5555 5562 5568 5576 5583 5590 5597 5604 5611 5615 5619 5623 5625
5608 5602 5596 5590 5584 5579 5574 5569 5564 5558 5554 5550 5546 5542 5538 5535 5531 5527 5523 5520 5518 5518 5517 5518 5519 5521 5523 5526 5531 5537 5544 5551 5556 5563 5570 5578 5586 5593 5601 5608 5614 5617 5621
5604 5597 5591 5585 5579 5574 5569 5564 5558 5553 5549 5545 5541 5537 5532 5527 5523 5519 5515 5512 5510 5510 5509 5510 5511 5512 5513 5516 5520 5527 5534 5539 5544 5552 5559 5566 5574 5582 5590 5597 5604 5610 5616
5599 5593 5587 5581 5575 5572 5565 5559 5554 5549 5544 5540 5535 5531 5526 5521 5516 5512 5508 5505 5503 5502 5503 5503 5503 5504 5505 5508 5511 5517 5521 5526 5533 5540 5548 5556 5563 5572 5579 5587 5593 5600 5607
5595 5589 5583 5577 5571 5566 5560 5555 5551 5545 5540 5535 5529 5525 5521 5516 5511 5507 5503 5500 5498 5497 5497 5497 5496 5497 5498 5500 5504 5508 5512 5518 5525 5531 5540 5547 5554 5562 5568 5575 5582 5588 5595
5590 5584 5579 5573 5568 5563 5557 5552 5546 5542 5537 5531 5526 5521 5516 5512 5508 5504 5500 5496 5494 5493 5492 5492 5491 5491 5492 5495 5498 5502 5507 5513 5519 5526 5533 5538 5543 5550 5558 5566 5572 5579 5584
5586 5580 5575 5569 5564 5559 5555 5549 5544 5540 5533 5528 5523 5517 5513 5510 5506 5500 5495 5493 5491 5489 5488 5488 5488 5488 5489 5491 5494 5498 5503 5507 5513 5519 5524 5529 5535 5542 5549 5556 5563 5570 5577
5582 5577 5571 5566 5561 5556 5552 5548 5544 5538 5533 5527 5521 5515 5512 5507 5503 5499 5495 5492 5490 5487 5486 5488 5488 5488 5490 5491 5494 5497 5501 5505 5510 5514 5519 5524 5529 5535 5542 5548 5555 5563 5570
5578 5572 5567 5563 5558 5553 5549 5544 5542 5539 5534 5529 5524 5518 5512 5508 5503 5500 5496 5493 5491 5488 5488 5489 5489 5490 5491 5492 5494 5496 5500 5504 5507 5511 5515 5519 5524 5530 5536 5542 5549 5556 5563
5574 5569 5564 5559 5555 5550 5546 5542 5538 5534 5532 5530 5526 5520 5514 5509 5505 5501 5497 5495 5494 5491 5491 5491 5491 5492 5493 5494 5495 5497 5499 5501 5504 5508 5512 5515 5520 5526 5531 5537 5544 5550 5557
5571 5565 5561 5557 5553 5548 5544 5540 5537 5533 5530 5527 5525 5522 5516 5512 5507 5503 5499 5497 5497 5496 5494 5493 5494 5494 5494 5495 5496 5498 5500 5502 5505 5507 5510 5513 5518 5523 5528 5533 5539 5543 5551
5567 5563 5560 5555 5551 5547 5543 5540 5536 5533 5530 5527 5525 5522 5518 5513 5511 5508 5503 5501 5499 5498 5497 5496 5496 5496 5497 5497 5498 5499 5501 5503 5505 5508 5511 5513 5517 5521 5525 5530 5535 5541 5547
5563 5559 5556 5552 5548 5544 5541 5539 5536 5532 5530 5528 5526 5523 5518 5515 5513 5511 5508 5506 5504 5503 5502 5501 5500 5500 5500 5500 5501 5502 5503 5505 5507 5509 5511 5514 5516 5519 5524 5528 5533 5539 5544
5559 5555 5551 5549 5546 5543 5540 5538 5535 5532 5530 5529 5527 5525 5521 5518 5516 5514 5512 5511 5509 5507 5506 5505 5505 5504 5504 5504 5505 5506 5507 5508 5510 5512 5513 5515 5517 5520 5523 5526 5531 5535 5541
5555 5551 5549 5547 5544 5541 5539 5537 5535 5533 5531 5529 5527 5525 5524 5521 5518 5516 5515 5514 5513 5511 5510 5509 5509 5509 5509 5509 5509 5510 5512 5513 5515 5516 5516 5518 5519 5521 5524 5527 5531 5534 5539
5551 5548 5546 5544 5542 5539 5537 5536 5534 5532 5531 5529 5528 5526 5524 5522 5520 5518 5517 5516 5515 5514 5514 5513 5512 5513 5513 5512 5513 5514 5515 5516 5517 5518 5519 5520 5521 5523 5525 5528 5532 5535 5538
5547 5544 5542 5540 5538 5536 5535 5534 5533 5531 5529 5528 5527 5526 5525 5523 5521 5520 5519 5518 5517 5517 5516 5516 5515 5515 5515 5515 5515 5517 5517 5517 5518 5519 5520 5521 5523 5524 5526 5528 5532 5535 5538
5543 5540 5538 5537 5535 5533 5532 5531 5530 5529 5528 5527 5526 5525 5524 5523 5522 5521 5520 5520 5519 5519 5518 5518 5517 5517 5516 5516 5516 5517 5517 5517 5518 5519 5521 5523 5524 5525 5526 5529 5531 5534 5537